Regional Weather Roundup
Issued by NWS

Home | Current Version | Previous Version | Graphics & Text | Print | Product List | Glossary On
Versions: 1 2 3 4 5 6 7 8 9 10 11 12 13 14 15 16 17 18 19 20 21 22 23 24 25 26 27 28 29 30 31 32 33 34 35 36 37 38 39 40 41 42 43 44 45 46 47 48 49 50
000
ASUS45 KPSR 180910
RWRAZ

ARIZONA REGIONAL HOURLY WEATHER ROUNDUP
NATIONAL WEATHER SERVICE PHOENIX AZ
200 AM MST FRI APR 18 2014

NOTE: FAIR INDICATES FEW OR NO CLOUDS BELOW 12,000 FEET WITH NO
SIGNIFICANT WEATHER AND/OR OBSTRUCTIONS TO VISIBILITY.

AZZ001>003-036-181000-
NORTHWEST ARIZONA

CITY           SKY/WX    TMP DP  RH WIND       PRES   REMARKS
BULLHEAD CITY  CLOUDY    73  27  17 SE5       29.78S
KINGMAN        CLOUDY    58  15  18 CALM      29.90F
$$

AZZ004>008-015-016-018-181000-
NORTH CENTRAL ARIZONA

CITY           SKY/WX    TMP DP  RH WIND       PRES   REMARKS
GRAND CANYON   PTCLDY    33  15  47 CALM      30.09F
WILLIAMS       MOCLDY    43  16  33 SE9       30.16F
PRESCOTT       MOCLDY    49  25  39 S3        30.00F
FLAGSTAFF      CLOUDY    38  19  46 CALM      30.10F
PAYSON         MOCLDY    54  19  26 E5        30.04F
PAGE           MOCLDY    62  22  21 CALM      29.95F
$$

AZZ009>014-017-181000-
NORTHEAST ARIZONA

CITY           SKY/WX    TMP DP  RH WIND       PRES   REMARKS
WINSLOW        MOCLDY    49  23  36 SE5       30.02F
SAINT JOHNS    MOCLDY    51  19  28 VRB3      30.07F
WINDOW ROCK    CLEAR     34  16  47 CALM      30.15S
SHOW LOW       MOCLDY    46  16  29 SW3       30.11F
$$

AZZ023-181000-
GREATER PHOENIX AREA

CITY           SKY/WX    TMP DP  RH WIND       PRES   REMARKS
PHOENIX        CLOUDY    77  32  19 W10       29.81S
BUCKEYE          N/A     66  27  22 N9        29.84F
LUKE AFB       NOT AVBL
DEER VALLEY    MOCLDY    72  30  21 VRB6      29.83F
SCOTTSDALE     MOCLDY    74  32  21 N3        29.86S
MESA-GATEWAY   MOCLDY    72  32  23 CALM      29.87S
$$

AZZ027-028-181000-
SOUTHWEST MARICOPA COUNTY AND PINAL COUNTY

CITY           SKY/WX    TMP DP  RH WIND       PRES   REMARKS
CASA GRANDE    CLOUDY    64  28  25 CALM      29.86S
$$

AZZ503-504-507>509-181000-
SOUTHEAST ARIZONA

CITY           SKY/WX    TMP DP  RH WIND       PRES   REMARKS
TUCSON         CLOUDY    69  25  19 S5        29.94S
DAVIS-MONTHAN  CLOUDY    66  31  26 S6        29.92F
NOGALES        CLOUDY    61  33  35 CALM      29.99F
SIERRA VISTA   CLOUDY    61  23  23 NW3       30.02F
DOUGLAS        CLOUDY    58  17  20 NE5       29.99F
SAFFORD        CLOUDY    70  12  10 E14       29.93F
$$

AZZ020-021-025-026-031-181000-
SOUTHWEST ARIZONA

CITY           SKY/WX    TMP DP  RH WIND       PRES   REMARKS
YUMA           MOCLDY    71  48  43 S10       29.77F
$$

CAZ031-033-041-043-047-048-061-181000-
SOUTHERN CALIFORNIA

CITY           SKY/WX    TMP DP  RH WIND       PRES   REMARKS
DOWNTOWN L.A.  CLOUDY    62  52  69 VRB3      29.88F
L.A. AIRPORT   CLOUDY    62  53  72 E8        29.89F
SAN DIEGO      CLOUDY    62  52  69 S7        29.92S
BURBANK        CLOUDY    59  52  77 S6        29.89F
ONTARIO        CLOUDY    59  53  80 W5        29.89F
RIVERSIDE      CLOUDY    59  53  80 VRB3      29.89F
PALM SPRINGS   CLOUDY    68  53  58 W10       29.80F
EL CENTRO NAS  CLOUDY    64  55  72 E10       29.74F
IMPERIAL       CLOUDY    67  56  67 E7        29.75F
BLYTHE         CLOUDY    71  37  28 S9        29.77F
NEEDLES        MOCLDY    76  29  17 SE3       29.77F
$$

NVZ020-UTZ003-181000-
SOUTHERN NEVADA-UTAH

CITY           SKY/WX    TMP DP  RH WIND       PRES   REMARKS
LAS VEGAS      CLOUDY    74  21  13 S8        29.76F
SALT LAKE CITY CLOUDY    64  26  23 S22G30    29.81S
$$

NMZ009-TXZ055-181000-
NEW MEXICO-WEST TEXAS

CITY           SKY/WX    TMP DP  RH WIND       PRES   REMARKS
ALBUQUERQUE    PTCLDY    50  27  40 N9        30.15F
EL PASO        MOCLDY    61  30  31 CALM      30.09F
$$


........................KEY........................
SKY/WX - SKY CONDITION/WEATHER
TMP    - TEMPERATURE IN FAHRENHEIT
DP     - DEW POINT IN FAHRENHEIT
RH     - RELATIVE HUMIDITY IN PERCENT
WIND   - DIRECTION AND SPEED IN MILES PER HOUR (MPH)
VRB    - VARIABLE WIND DIRECTION
PRES   - MEAN SEA LEVEL PRESSURE IN INCHES OF MERCURY
         F - FALLING PRESSURE   R - RISING PRESSURE
         S - STEADY PRESSURE
VSB    - VISIBILITY IN MILES
HX     - HEAT INDEX IN FAHRENHEIT
WCI    - WIND CHILL INDEX IN FAHRENHEIT
TC     - TEMPERATURE IN CELSIUS WHICH IS ALSO KNOWN AS
         TEMPERATURE IN CENTIGRADE
AFB    - AIR FORCE BASE
         LUKE AFB IS LUKE AIR FORCE BASE
         DAVIS-MONTHAN IS DAVIS-MONTHAN AIR FORCE BASE
NAS    - NAVAL AIR STATION
         EL CENTRO NAS IS EL CENTRO NAVAL AIR STATION
N/A    - NOT AVAILABLE



USA.gov is the U.S. government's official web portal to all federal, state and local government web resources and services.